Location: Newark
(42.0700°N, 88.0492°W)
Time: 04:20:10
(UTC+00:00)

ISS - Pass Details

Date: 02 October 2019
Orbit: 411 x 421 km, 51.6° (Epoch: 24 October)

Event Time Altitude Azimuth Distance (km) Brightness Sun altitude
Rises 02:19:10 0° 306° (NW) 2,346 1.2 -30.7°
Reaches altitude 10° 02:21:18 10° 312° (NW) 1,481 -0.2 -31.0°
Enters shadow 02:21:31 11° 313° (NW) 1,398 -0.3 -31.0°
